Regional Weather Roundup
Issued by NWS Albany, NY

Home | Current Version | Previous Version | Text Only | Print | Product List | Glossary On
Versions: 1 2 3 4 5 6 7 8 9 10 11 12 13 14 15 16 17 18 19 20 21 22 23 24 25 26 27 28 29 30 31 32 33 34 35 36 37 38 39 40 41 42 43 44 45 46 47 48 49 50
000
ASUS41 KALY 161910
RWRALY

NEW YORK STATE HOURLY WEATHER ROUNDUP
NATIONAL WEATHER SERVICE ALBANY NY
300 PM EDT WED AUG 16 2017

NOTE: "FAIR" INDICATES FEW OR NO CLOUDS BELOW 12,000 FEET WITH NO
SIGNIFICANT WEATHER AND/OR NO OBSTRUCTIONS TO VISIBILITY.

NYZ032-033-038>043-046>054-057>066-NYZ062>081-082-084-162000-
EAST


CITY           SKY/WX    TMP DP  RH WIND       PRES   REMARKS
ALBANY         PTSUNNY   81  60  48 W6        29.96F
GLENS FALLS    MOSUNNY   75  58  55 E7        29.98F
POUGHKEEPSIE   MOSUNNY   81  61  50 N9        29.96S
NEWBURGH       PTSUNNY   81  64  57 N8        29.99S
MONTGOMERY     PTSUNNY   82  62  50 CALM      29.97R
WHITE PLAINS   MOSUNNY   83  61  47 NW9       29.97R
ISLIP          PTSUNNY   86  62  44 N14       29.94S
NEW YORK CITY  PTSUNNY   84  63  49 VRB7      29.95R
CENTRAL PARK   PTSUNNY   82  64  54 NE6       29.99R
$$

NYZ005>009-017-018-044>046-055-056-162000-
CENTRAL


CITY           SKY/WX    TMP DP  RH WIND       PRES   REMARKS
FULTON         SUNNY     74  54  49 NW9       30.07S
SYRACUSE       PTSUNNY   77  58  51 NW14      30.04F
ROME           CLOUDY    79  55  43 NW16      30.02F
ELMIRA         PTSUNNY   80  59  48 N10       30.05S HAZE
BINGHAMTON     PTSUNNY   74  58  57 N15       30.06S
MONTICELLO     PTSUNNY   77  59  53 N8        30.04R
$$

NYZ026>034-041>043-087-162000-
NORTH


CITY           SKY/WX    TMP DP  RH WIND       PRES   REMARKS
WATERTOWN      MOSUNNY   73  51  46 NE7       30.06F
FORT DRUM      NOT AVBL
OGDENSBURG     FAIR      75  50  41 CALM      30.05S
MASSENA        MOSUNNY   72  52  49 W10       30.06F
SARANAC LAKE   SUNNY     67  48  50 MISG      30.05F
PLATTSBURGH    SUNNY     74  47  38 N13       30.01F
$$

NYZ001>004-010>016-019>021-085-162000-
WEST


CITY           SKY/WX    TMP DP  RH WIND       PRES   REMARKS
NIAGARA FALLS  SUNNY     78  61  55 N7        30.08S
BUFFALO        MOSUNNY   78  61  55 N8        30.07F
DUNKIRK        SUNNY     74  62  66 NW9       30.09S
JAMESTOWN      SUNNY     73  54  51 NE9       30.11S
WELLSVILLE     MOSUNNY   75  57  53 VRB6G16   30.12S
ROCHESTER      MOSUNNY   74  61  63 NE7       30.09S
PENN YAN       MOSUNNY   76  60  57 VRB7      30.08S
$$

             KEY
       WCI = WIND CHILL INDEX
       VSB = VISIBILITY
       HX  = HEAT INDEX
$$



USA.gov is the U.S. government's official web portal to all federal, state and local government web resources and services.